Home > Weather > Santa Rosa > Past weeks

Flag for USA Past Weather in Santa Rosa, California, USA — Yesterday and Last 2 Weeks

Now
67 °F

Passing clouds.


Feels Like: 67 °F
Forecast: 49 / 76 °F
Wind: 13 mph from Southeast

Location: Santa Rosa Sonoma County Airport

Current Time: May 25, 2016 at 7:49:38 PM

Latest Report: May 25, 2016 at 6:53 PM


Visibility: 10 mi

Pressure: 29.99 "Hg

Humidity: 57%

Dew Point: 51 °F

Location of Santa RosaLocation

Past Weather in Santa Rosa — Graph

°F

Santa Rosa Temperature Yesterday

Maximum temperature yesterday: 70 °F (at 4:53 PM)
Minimum temperature yesterday: 47 °F (at 5:53 AM)
Average temperature yesterday: 59 °F

High & Low Weather Summary for the Past Weeks

 TemperatureHumidityPressure
High93 °F (May 17, 3:53 PM)100% (May 11, 12:00 AM)30.11 "Hg (May 11, 12:00 AM)
Low42 °F (May 22, 4:53 AM)16% (May 17, 1:53 PM)29.70 "Hg (May 20, 12:53 AM)
Average60 °F71%29.93 "Hg
* Reported May 10 5:53 PM — May 25 5:53 PM, Santa Rosa, Weather by CustomWeather, © 2016

Note: Actual official high and low records may vary slightly from our data, if they occured in-between our weather recording intervals... More about our weather records

Advertising

Santa Rosa Weather History for the Previous 24 Hours

Scroll right to see more
 ConditionsComfort  
Time TempWeatherWind HumidityBarometerVisibility
5:53 PM
Wed, May 25
71 °FPassing clouds.15 mph49%29.99 "Hg10 mi
4:53 PM75 °FPassing clouds.13 mph47%29.99 "Hg10 mi
3:53 PM74 °FPassing clouds.10 mph48%30.01 "Hg10 mi
2:53 PM72 °FPassing clouds.10 mph55%30.03 "Hg10 mi
1:53 PM70 °FScattered clouds.10 mph59%30.04 "Hg10 mi
12:53 PM67 °FScattered clouds.7 mph63%30.07 "Hg10 mi
11:53 AM63 °FPartly sunny.6 mph70%30.09 "Hg10 mi
10:53 AM61 °FPartly sunny.6 mph75%30.08 "Hg10 mi
9:53 AM58 °FOvercast.3 mph84%30.07 "Hg10 mi
8:53 AM57 °FOvercast.No wind83%30.06 "Hg10 mi
7:53 AM56 °FOvercast.3 mph87%30.05 "Hg7 mi
6:53 AM55 °FFog.3 mph93%30.04 "Hg5 mi
5:53 AM54 °FOvercast.3 mph93%30.03 "Hg10 mi
4:53 AM55 °FMostly cloudy.No wind90%30.02 "Hg10 mi
3:53 AM55 °FOvercast.3 mph90%30.01 "Hg10 mi
2:53 AM55 °FOvercast.No wind90%30.01 "Hg10 mi
1:53 AM55 °FLow clouds.No wind87%30.01 "Hg10 mi
12:53 AM55 °FLow clouds.No wind90%30.01 "Hg10 mi
11:53 PM
Tue, May 24
54 °FLow clouds.7 mph93%30.01 "Hg10 mi
10:53 PM54 °FPassing clouds.5 mph90%30.01 "Hg10 mi
9:53 PM55 °FPassing clouds.7 mph87%30.00 "Hg10 mi
8:53 PM56 °FSunny.7 mph84%29.98 "Hg10 mi
7:53 PM60 °FSunny.10 mph72%29.96 "Hg10 mi
Weather by CustomWeather, © 2016

See weather overviewHow to use our weather pages